SP5MRF Weather Reports


time (UTC)temp
C
wind
direction
speed
KPH
gust
KPH
rain 1hr
cm
rain 24hr
cm
rain mn
cm
humidity
%
barometer
mb
20260508072552 10 337 0.0 0.0 0.00 0.00 0.00 80 1013.5
20260508071752 10 0 0.0 0.0 0.00 0.00 0.00 80 1013.3
20260508070952 10 337 0.0 0.0 0.00 0.00 0.00 80 1013.3
20260508070152 10 0 0.0 0.0 0.00 0.00 0.00 80 1013.1
20260508065355 10 292 0.0 0.0 0.00 0.00 0.00 80 1013.0
20260508064554 10 22 0.0 0.0 0.00 0.00 0.00 80 1013.1
20260508063753 10 292 0.0 3.2 0.00 0.00 0.00 80 1013.1
20260508062952 10 45 0.0 0.0 0.00 0.00 0.00 80 1013.0
20260508062152 10 22 0.0 0.0 0.00 0.00 0.00 80 1013.0
20260508061352 10 0 0.0 0.0 0.00 0.00 0.00 81 1013.0
20260508060552 10 22 0.0 0.0 0.00 0.00 0.00 80 1012.9
20260508055752 10 22 0.0 0.0 0.00 0.00 0.00 80 1012.8
20260508054952 10 337 0.0 0.0 0.00 0.00 0.00 80 1012.8
20260508054153 10 337 0.0 0.0 0.00 0.00 0.00 80 1012.8
20260508053352 10 337 0.0 0.0 0.00 0.00 0.00 80 1012.7
20260508052552 10 0 0.0 0.0 0.00 0.00 0.00 81 1012.6
20260508051753 10 0 0.0 0.0 0.00 0.00 0.00 81 1012.5
20260508050152 10 22 0.0 0.0 0.00 0.00 0.00 80 1012.4
20260508045353 10 337 0.0 3.2 0.00 0.00 0.00 80 1012.4
20260508044552 10 22 0.0 0.0 0.00 0.00 0.00 80 1012.5
20260508043752 10 22 0.0 0.0 0.00 0.00 0.00 80 1012.4
20260508042953 10 0 0.0 0.0 0.00 0.00 0.00 80 1012.3
20260508042152 10 22 0.0 0.0 0.00 0.00 0.00 80 1012.2
20260508041353 10 22 0.0 0.0 0.00 0.00 0.00 80 1012.0
20260508040554 10 45 0.0 3.2 0.00 0.00 0.00 79 1012.2
20260508035833 10 292 0.0 1.6 0.00 0.00 0.00 79 1012.1
20260508035754 10 292 0.0 1.6 0.00 0.00 0.00 79 1012.1
20260508034952 10 0 0.0 0.0 0.00 0.00 0.00 79 1012.2
20260508034152 10 0 0.0 0.0 0.00 0.00 0.00 79 1012.1
20260508033352 10 0 0.0 0.0 0.00 0.00 0.00 79 1012.1
20260508032552 10 0 0.0 0.0 0.00 0.00 0.00 79 1012.1
20260508031752 10 22 0.0 0.0 0.00 0.00 0.00 79 1012.0
20260508030952 10 22 0.0 0.0 0.00 0.00 0.00 78 1012.1
20260508030152 10 22 0.0 0.0 0.00 0.00 0.00 78 1011.8
20260508025355 10 292 0.0 0.0 0.00 0.00 0.00 78 1011.9
20260508024552 10 22 0.0 0.0 0.00 0.00 0.00 78 1011.7
20260508023752 10 22 0.0 0.0 0.00 0.00 0.00 78 1011.8
20260508022952 10 0 0.0 0.0 0.00 0.00 0.00 78 1011.7
20260508022152 10 337 0.0 0.0 0.00 0.00 0.00 78 1011.9
20260508021353 10 22 0.0 0.0 0.00 0.00 0.00 78 1011.7
20260508020552 10 22 0.0 0.0 0.00 0.00 0.00 78 1011.9
20260508015752 10 22 0.0 6.4 0.00 0.00 0.00 77 1011.7
20260508014952 10 337 0.0 0.0 0.00 0.00 0.00 77 1011.8
20260508014154 10 22 0.0 0.0 0.00 0.00 0.00 77 1011.7
20260508013352 10 0 0.0 0.0 0.00 0.00 0.00 77 1011.7
20260508012552 10 22 0.0 0.0 0.00 0.00 0.00 77 1011.5
20260508011752 10 22 0.0 1.6 0.00 0.00 0.00 77 1011.7
20260508010952 10 22 0.0 0.0 0.00 0.00 0.00 77 1011.6
20260508010152 10 22 0.0 1.6 0.00 0.00 0.00 77 1011.6
20260508005352 10 22 0.0 0.0 0.00 0.00 0.00 77 1011.5
20260508004558 10 337 0.0 6.4 0.00 0.00 0.00 77 1011.6
20260508003752 10 45 0.0 1.6 0.00 0.00 0.00 77 1011.3
20260508002952 10 0 1.6 1.6 0.00 0.00 0.00 77 1011.6
20260508002152 10 22 0.0 0.0 0.00 0.00 0.00 76 1011.6
20260507235753 10 22 0.0 0.0 0.00 0.00 0.00 76 1011.5
20260507234952 10 22 1.6 1.6 0.00 0.00 0.00 75 1011.4
20260507234152 11 0 0.0 0.0 0.00 0.00 0.00 75 1011.3
20260507233352 11 22 0.0 0.0 0.00 0.00 0.00 75 1011.4
20260507231752 11 22 0.0 0.0 0.00 0.00 0.00 75 1011.6
20260507230953 11 0 0.0 0.0 0.00 0.00 0.00 75 1011.4
20260507230152 11 22 0.0 0.0 0.00 0.00 0.00 75 1011.4
20260507225353 11 22 0.0 0.0 0.00 0.00 0.00 75 1011.3
20260507224553 11 22 0.0 0.0 0.00 0.00 0.00 75 1011.4
20260507223753 11 0 0.0 0.0 0.00 0.00 0.00 75 1011.2
20260507222954 11 0 0.0 0.0 0.00 0.00 0.00 75 1011.1
20260507222153 11 22 0.0 0.0 0.00 0.00 0.00 75 1011.0
20260507221353 11 22 0.0 0.0 0.00 0.00 0.00 75 1010.9
20260507220553 11 0 0.0 0.0 0.00 0.00 0.00 75 1010.9
20260507215753 11 45 0.0 0.0 0.00 0.00 0.00 75 1010.7
20260507214953 11 67 0.0 0.0 0.00 0.00 0.00 75 1010.7
20260507214153 11 0 0.0 0.0 0.00 0.00 0.00 75 1010.7
20260507213353 11 0 0.0 0.0 0.00 0.00 0.00 74 1010.6
20260507212553 11 22 0.0 6.4 0.00 0.00 0.00 74 1010.6
20260507211753 11 337 0.0 4.8 0.00 0.00 0.00 74 1010.6
20260507210953 11 22 0.0 1.6 0.00 0.00 0.00 74 1010.6
20260507210153 11 0 0.0 0.0 0.00 0.00 0.00 74 1010.5
20260507205353 11 22 0.0 0.0 0.00 0.00 0.00 74 1010.6
20260507204553 12 0 0.0 0.0 0.00 0.00 0.00 74 1010.4
20260507203754 11 0 0.0 0.0 0.00 0.00 0.00 74 1010.4
20260507202953 12 22 0.0 0.0 0.00 0.00 0.00 74 1010.6
20260507202153 12 0 0.0 0.0 0.00 0.00 0.00 74 1010.6
20260507201355 12 337 0.0 0.0 0.00 0.00 0.00 74 1010.6
20260507200553 12 22 0.0 0.0 0.00 0.00 0.00 74 1010.4
20260507195753 12 22 0.0 0.0 0.00 0.00 0.00 74 1010.2
20260507194953 12 0 0.0 0.0 0.00 0.00 0.00 74 1010.3
20260507194154 12 0 0.0 0.0 0.00 0.00 0.00 74 1010.2
20260507193353 12 0 0.0 0.0 0.00 0.00 0.00 74 1010.3
20260507192553 12 337 0.0 0.0 0.00 0.00 0.00 74 1010.3
20260507191753 12 337 0.0 0.0 0.00 0.00 0.00 73 1009.9
20260507190953 12 0 0.0 0.0 0.00 0.00 0.00 74 1010.1
20260507190153 12 0 0.0 0.0 0.00 0.00 0.00 73 1009.9
20260507185355 12 22 0.0 0.0 0.00 0.00 0.00 73 1010.0
20260507184554 12 45 0.0 4.8 0.00 0.00 0.00 73 1009.7
20260507183753 12 0 0.0 6.4 0.00 0.00 0.00 73 1009.8
20260507182953 12 0 0.0 0.0 0.00 0.00 0.00 73 1009.8
20260507182153 12 0 0.0 0.0 0.00 0.00 0.00 73 1009.5
20260507181353 12 0 0.0 0.0 0.00 0.00 0.00 73 1009.6
20260507180553 12 337 0.0 0.0 0.00 0.00 0.00 73 1009.4
20260507175753 13 0 0.0 0.0 0.00 0.00 0.00 73 1009.4
20260507174953 13 22 0.0 0.0 0.00 0.00 0.00 73 1009.0
20260507174154 13 0 0.0 0.0 0.00 0.00 0.00 73 1009.0
20260507173353 13 0 0.0 3.2 0.00 0.00 0.00 73 1008.7
20260507172554 13 337 0.0 3.2 0.00 0.00 0.00 72 1008.6
20260507171753 13 45 0.0 0.0 0.00 0.00 0.00 72 1008.3
20260507170953 13 292 0.0 0.0 0.00 0.00 0.00 71 1008.3
20260507170153 13 22 0.0 1.6 0.00 0.00 0.00 71 1008.3
20260507165353 13 0 0.0 1.6 0.00 0.00 0.00 71 1008.1
20260507164553 14 0 0.0 0.0 0.00 0.00 0.00 70 1008.0
20260507163753 14 337 0.0 0.0 0.00 0.00 0.00 70 1008.3
20260507162953 14 315 0.0 0.0 0.00 0.00 0.00 70 1008.1
20260507162153 14 0 0.0 0.0 0.00 0.00 0.00 70 1008.0
20260507161353 14 0 0.0 0.0 0.00 0.00 0.00 70 1008.1
20260507160553 14 0 0.0 0.0 0.00 0.00 0.00 69 1008.2
20260507155753 15 22 0.0 0.0 0.00 0.00 0.00 69 1008.2
20260507154953 15 22 0.0 0.0 0.00 0.00 0.00 69 1008.3
20260507154154 15 0 0.0 0.0 0.00 0.00 0.00 69 1008.2
20260507153353 15 337 3.2 3.2 0.00 0.00 0.00 69 1008.5
20260507152553 15 22 0.0 1.6 0.00 0.00 0.00 68 1008.3
20260507151753 15 22 0.0 3.2 0.00 0.00 0.00 67 1008.3
20260507150954 15 0 0.0 0.0 0.00 0.00 0.00 67 1008.3
20260507150153 15 292 0.0 0.0 0.00 0.00 0.00 68 1008.3
20260507145353 16 0 0.0 4.8 0.00 0.00 0.00 67 1008.3
20260507144553 16 22 0.0 0.0 0.00 0.00 0.00 68 1008.2
20260507143753 16 315 0.0 0.0 0.00 0.00 0.00 68 1008.2
20260507142953 16 90 0.0 0.0 0.00 0.00 0.00 68 1008.2
20260507142153 16 22 0.0 9.7 0.00 0.00 0.00 68 1007.9
20260507141354 16 0 0.0 6.4 0.00 0.00 0.00 67 1007.9
20260507140553 16 0 0.0 0.0 0.00 0.00 0.00 68 1007.8
20260507135753 16 315 0.0 0.0 0.00 0.00 0.00 68 1007.7
20260507134953 16 45 0.0 6.4 0.00 0.00 0.00 68 1007.7
20260507134154 16 337 0.0 0.0 0.00 0.00 0.00 68 1007.7
20260507133353 16 67 0.0 0.0 0.00 0.00 0.00 68 1007.7
20260507132553 16 292 0.0 1.6 0.00 0.00 0.00 68 1007.8
20260507131755 16 0 0.0 0.0 0.00 0.00 0.00 68 1007.7
20260507130953 16 337 0.0 0.0 0.00 0.00 0.00 68 1007.6
20260507130153 16 292 0.0 0.0 0.00 0.00 0.00 68 1007.6
20260507125355 16 22 0.0 0.0 0.00 0.00 0.00 68 1007.7
20260507124553 17 337 0.0 1.6 0.00 0.00 0.00 67 1007.8
20260507123753 17 337 0.0 0.0 0.00 0.00 0.00 68 1007.6
20260507122953 17 22 6.4 6.4 0.00 0.00 0.00 67 1007.5
20260507122153 17 292 0.0 6.4 0.00 0.00 0.00 68 1007.6
20260507121353 17 337 0.0 1.6 0.00 0.00 0.00 69 1007.5
20260507120553 17 315 0.0 0.0 0.00 0.00 0.00 70 1007.6
20260507115753 17 0 0.0 0.0 0.00 0.00 0.00 71 1007.5
20260507114955 16 337 0.0 0.0 0.00 0.00 0.00 72 1007.6
20260507113355 15 22 0.0 0.0 0.00 0.00 0.00 74 1007.3
20260507112555 15 315 0.0 3.2 0.00 0.00 0.00 75 1007.3
20260507111753 15 315 0.0 0.0 0.00 0.00 0.00 75 1007.1
20260507110955 14 337 0.0 0.0 0.00 0.00 0.00 75 1007.2
20260507110153 14 337 0.0 0.0 0.00 0.00 0.00 75 1007.2
20260507104553 14 292 0.0 0.0 0.00 0.00 0.00 75 1007.1
20260507103753 14 315 0.0 0.0 0.00 0.00 0.00 74 1007.1
20260507102953 14 315 0.0 0.0 0.00 0.00 0.00 74 1007.0
20260507102154 14 315 0.0 0.0 0.00 0.00 0.00 73 1006.7
20260507101354 15 315 0.0 0.0 0.00 0.00 0.00 72 1006.6
20260507100553 15 337 0.0 0.0 0.00 0.00 0.00 72 1006.7
20260507095754 16 315 0.0 0.0 0.00 0.00 0.00 71 1006.4
20260507094953 16 292 0.0 0.0 0.00 0.00 0.00 71 1006.4
20260507094155 16 315 0.0 0.0 0.00 0.00 0.00 71 1006.2
20260507093355 16 337 0.0 6.4 0.00 0.00 0.00 70 1006.3
20260507091754 17 22 0.0 0.0 0.00 0.00 0.00 70 1006.0
20260507090954 17 22 0.0 0.0 0.00 0.00 0.00 70 1006.0
20260507090154 17 22 0.0 0.0 0.00 0.00 0.00 71 1005.7
20260507084554 17 0 0.0 0.0 0.00 0.00 0.00 70 1005.5
20260507083754 17 315 0.0 0.0 0.00 0.00 0.00 70 1005.5
20260507082954 17 337 0.0 0.0 0.00 0.00 0.00 72 1005.3
20260507082154 17 292 0.0 0.0 0.00 0.00 0.00 72 1005.2
20260507081354 17 292 0.0 0.0 0.00 0.00 0.00 72 1005.0
20260507080554 17 315 0.0 0.0 0.00 0.00 0.00 71 1005.2
20260507075754 17 337 0.0 3.2 0.00 0.00 0.00 72 1005.0
20260507074954 17 315 0.0 3.2 0.00 0.00 0.00 71 1005.0
20260507073354 17 0 0.0 6.4 0.00 0.00 0.00 71 1004.6